Wind_Speed
11 11 12 12 11 5 5 5 4 5 4 8 5 5 13 11 9 10 9 10 13 14 15 15 15 16 18 22 23 23 22 21 22 23 24 25 26 25 25 27 26 27 26
8 4 5 5 5 6 5 5 6 3 4 6 4 2 7 5 6 8 12 14 15 17 16 16 16 18 20 21 21 23 24 25 25 26 26 28 29 30 28 27 28 29 30
4 3 4 4 5 5 6 5 4 4 1 3 6 6 7 7 7 7 5 5 16 18 20 16 17 18 19 19 20 21 23 23 23 24 25 27 27 29 30 28 27 28 31
1 3 4 3 4 5 4 6 5 4 2 2 3 4 6 7 8 8 7 6 5 7 18 20 18 18 18 20 19 20 23 24 25 25 26 26 24 25 24 24 26 29 28
1 2 2 3 5 6 6 7 7 5 6 6 5 6 5 5 6 7 9 10 11 11 10 17 22 23 27 25 20 23 26 26 27 27 27 27 27 26 28 27 26 25 25
2 4 4 4 6 7 7 9 8 7 6 5 2 2 3 4 5 7 9 9 11 12 12 12 11 14 23 28 28 25 24 25 26 27 27 28 28 28 29 28 26 25 28
5 7 7 9 9 9 10 11 10 8 5 3 2 1 1 5 4 6 8 10 11 11 12 13 12 12 13 17 24 28 26 28 29 29 28 28 28 28 28 27 27 27 29
7 7 9 9 10 9 11 12 13 11 12 7 3 1 2 1 5 4 7 10 15 11 13 13 14 15 15 15 21 25 29 32 32 31 30 29 28 27 27 27 28 28 28
9 8 9 11 10 10 12 11 13 14 10 14 13 6 3 5 10 4 7 11 14 12 14 11 14 15 17 17 20 23 31 33 32 32 31 31 30 29 29 29 30 29 28
10 9 10 11 11 11 11 11 12 12 13 11 10 12 11 11 6 4 6 11 13 12 15 12 13 15 18 18 20 23 33 34 34 32 32 33 32 31 32 32 31 31 31
10 10 10 11 10 11 11 11 11 11 12 12 11 9 9 7 10 5 8 15 14 10 15 14 14 16 17 20 21 28 34 35 34 34 35 32 31 31 31 31 31 32 32
12 11 11 10 10 10 10 11 11 12 13 12 11 11 10 9 9 8 12 15 18 16 14 15 14 19 19 21 21 31 32 33 35 36 32 30 31 32 31 31 31 31 31
12 12 11 9 9 10 9 10 11 12 12 12 12 8 8 7 7 9 11 15 19 16 13 14 15 19 21 22 26 31 32 31 34 29 31 35 35 33 32 32 33 33 33
11 11 11 9 8 8 8 9 10 10 11 12 11 10 7 7 8 9 11 15 18 14 17 13 20 20 23 24 26 32 31 32 29 32 35 37 38 33 32 33 32 32 32
12 10 10 8 8 7 7 8 8 9 11 10 10 10 7 8 9 10 11 11 13 17 21 15 22 22 22 24 25 32 30 30 31 32 34 35 36 33 36 34 32 33 32
12 10 9 8 7 6 6 6 8 9 9 9 8 10 10 11 10 11 12 10 11 14 17 20 22 22 22 23 24 28 29 30 29 29 32 36 31 35 33 31 31 34 33
13 11 9 8 7 6 5 6 7 8 8 9 10 10 11 12 12 11 12 11 12 14 19 22 20 21 22 23 26 28 26 27 27 28 32 33 33 33 33 32 33 35 33
13 11 10 8 6 5 4 4 5 6 7 8 9 9 11 11 11 12 13 12 13 15 17 22 22 22 22 24 26 27 27 24 26 25 27 29 32 31 30 31 34 31 37
13 11 10 8 6 4 3 3 4 5 6 8 10 10 11 12 13 15 16 14 16 18 16 18 21 20 21 22 27 25 27 27 25 25 24 28 30 30 29 31 29 33 36
14 12 10 8 6 4 2 1 3 4 6 8 10 11 11 14 16 18 19 19 19 18 16 17 19 20 22 23 25 28 33 31 32 21 26 29 29 29 28 24 26 37 35
13 12 11 9 7 5 2 0 2 4 6 8 11 11 12 17 18 21 22 22 21 18 18 18 19 21 25 28 29 31 30 31 34 27 32 30 29 27 25 25 30 35 35
15 13 12 10 8 6 3 2 3 4 5 7 8 10 12 19 22 24 25 22 22 23 19 18 19 22 23 26 29 28 29 32 33 28 34 30 28 27 21 22 31 37 37
16 15 13 11 9 8 5 3 4 4 5 7 9 11 10 11 18 21 21 17 16 21 20 22 18 20 24 24 26 26 27 29 30 31 28 29 27 27 19 23 29 33 33
17 15 14 12 10 9 5 4 4 5 5 8 10 11 12 14 19 21 21 15 14 12 19 19 20 21 21 21 20 22 24 26 26 26 21 29 27 24 18 25 31 30 29
17 15 14 13 11 9 6 5 5 5 5 7 11 12 14 15 20 22 21 17 17 19 21 20 19 19 19 19 19 21 22 24 28 27 20 26 25 26 17 28 29 29 28
17 15 14 13 12 10 7 6 6 5 6 6 8 12 16 16 21 22 20 18 20 22 21 20 19 20 18 17 19 19 21 24 24 23 24 25 24 27 16 26 28 26 27
Wind_Direction
293 291 291 299 288 305 323 333 321 327 349 295 289 327 300 305 313 308 310 334 341 323 322 321 322 321 318 319 322 320 318 318 315 310 307 302 302 301 300 300 302 303 302
301 341 342 334 339 333 329 333 304 345 295 294 328 309 331 5 347 348 345 335 332 334 330 323 323 323 319 320 320 318 316 315 314 313 310 308 307 303 301 299 296 294 295
317 13 2 -0 348 348 6 357 22 25 283 28 58 60 37 40 38 43 44 20 348 342 338 340 330 327 325 325 324 323 322 322 320 318 313 312 313 311 311 309 303 299 293
8 48 27 360 24 11 20 22 57 63 296 115 94 74 64 60 54 48 24 18 8 2 342 337 347 344 344 339 340 339 335 335 334 333 330 327 324 319 316 311 308 306 311
54 44 22 32 46 34 38 61 59 71 36 71 64 68 76 63 56 40 37 28 9 12 14 350 355 349 341 342 340 340 342 341 339 337 336 334 334 333 331 328 324 325 321
76 76 75 84 74 64 57 68 73 82 83 83 80 76 81 59 46 35 31 25 18 16 6 7 3 340 340 337 338 340 344 342 340 337 337 337 337 336 333 330 328 322 322
108 96 86 80 67 76 73 70 61 73 45 43 60 307 342 36 61 48 19 16 17 9 4 3 357 355 346 348 327 336 351 345 341 339 338 337 336 334 334 335 330 327 325
119 105 103 94 86 68 79 79 87 55 51 66 50 342 251 182 4 -0 19 12 3 8 5 358 352 356 350 351 338 337 346 344 341 341 343 342 341 337 336 334 331 330 327
114 113 105 101 89 87 80 80 80 87 53 46 56 88 350 1 347 337 355 4 1 1 355 357 345 355 346 348 342 330 339 338 338 338 338 336 336 334 332 331 330 329 327
121 113 106 100 98 91 89 81 82 81 78 61 46 46 56 43 14 339 342 345 359 348 349 352 346 352 344 344 341 325 334 335 336 334 332 331 332 332 332 332 330 327 326
130 123 106 102 100 96 93 90 87 84 78 72 60 48 43 19 11 337 323 339 348 345 344 345 346 347 341 340 341 321 333 334 334 331 330 333 336 336 335 334 331 330 327
135 120 111 106 104 99 92 88 82 78 75 75 62 54 42 28 1 355 342 343 344 347 347 345 339 343 341 339 336 325 335 333 328 334 336 335 336 337 335 333 331 329 328
138 129 119 112 106 99 91 83 79 72 67 64 64 51 35 20 7 356 350 341 340 342 348 342 345 340 337 335 332 329 334 330 330 337 343 341 339 336 334 333 332 330 328
149 136 125 120 106 98 91 86 76 70 62 56 50 51 29 11 8 5 357 347 341 341 340 339 337 333 334 333 335 328 336 334 338 351 342 337 339 339 336 334 332 331 330
151 144 136 126 107 99 91 83 78 64 55 47 35 36 31 7 3 3 359 353 341 330 334 334 334 330 331 331 332 334 336 337 352 341 334 338 338 341 344 343 341 338 333
161 156 147 139 122 104 88 81 69 58 51 42 27 27 23 12 5 1 353 345 338 328 314 325 326 328 331 332 334 339 340 342 343 333 339 333 344 342 344 344 341 340 337
164 165 158 143 136 117 94 71 63 55 46 30 26 18 11 10 6 353 349 341 337 327 318 321 327 330 330 333 338 339 342 345 335 346 332 345 340 340 345 340 338 338 337
172 171 162 155 146 120 92 78 65 49 39 25 18 15 6 7 0 348 350 339 332 330 325 322 329 331 335 335 335 342 339 341 346 334 342 336 339 348 345 340 338 341 337
173 172 170 167 156 137 113 74 48 38 26 17 11 9 2 358 355 352 354 342 337 336 330 322 325 332 330 339 337 340 340 345 343 342 338 341 350 346 344 345 342 339 339
178 178 176 177 172 164 148 70 30 21 15 4 4 1 353 352 353 356 354 348 341 338 332 333 331 330 336 335 335 335 341 348 347 349 341 352 347 348 347 345 340 345 344
180 181 183 185 184 185 193 344 354 4 5 359 355 354 336 348 352 354 355 350 349 346 341 335 332 332 334 330 337 337 338 340 349 346 348 356 344 352 354 349 350 348 351
184 184 187 192 195 190 206 287 325 344 352 349 350 342 346 344 341 349 349 350 353 345 341 335 331 330 325 329 331 339 342 341 343 354 350 350 348 358 1 351 354 354 356
190 191 194 197 200 218 220 267 309 325 332 331 341 342 348 324 338 343 345 354 342 335 334 329 325 325 329 330 332 341 341 344 342 349 341 346 360 3 13 2 1 359 1
195 196 197 198 205 224 226 266 297 309 317 322 333 335 338 337 340 344 345 349 340 334 320 332 331 335 333 340 343 341 339 337 343 353 343 348 2 2 21 13 6 6 9
194 195 198 204 205 231 231 257 287 298 305 316 320 327 334 334 341 346 346 345 338 332 336 339 342 344 342 349 344 339 343 346 345 353 345 354 4 6 27 14 10 14 17
195 193 196 207 214 229 227 249 274 287 292 295 312 313 329 339 339 341 342 341 336 341 343 348 349 349 352 351 350 354 349 344 341 347 346 353 3 9 358 12 16 21 20
Height
1556 1556 1556 1556 1555 1555 1555 1555 1555 1556 1555 1552 1552 1548 1548 1548 1548 1548 1548 1548 1546 1545 1543 1542 1541 1538 1535 1533 1531 1529 1527 1525 1523 1520 1518 1515 1513 1511 1509 1507 1505 1502 1500
1554 1555 1556 1556 1554 1554 1553 1553 1552 1554 1554 1552 1550 1549 1548 1549 1548 1548 1547 1547 1546 1544 1542 1541 1539 1536 1533 1531 1529 1527 1524 1522 1519 1517 1513 1510 1508 1506 1504 1502 1499 1496 1494
1552 1553 1554 1553 1552 1551 1552 1551 1553 1554 1554 1553 1551 1550 1550 1550 1549 1550 1550 1551 1544 1543 1541 1539 1537 1535 1532 1529 1527 1524 1521 1519 1516 1514 1510 1507 1504 1500 1498 1495 1492 1489 1486
1551 1553 1553 1552 1551 1551 1550 1550 1552 1555 1553 1552 1552 1553 1551 1552 1550 1549 1548 1547 1547 1547 1542 1537 1535 1533 1531 1528 1525 1522 1519 1515 1512 1509 1506 1503 1500 1497 1495 1491 1488 1484 1481
1552 1551 1552 1552 1552 1551 1550 1550 1552 1555 1553 1553 1554 1555 1555 1554 1552 1551 1549 1548 1545 1544 1543 1539 1535 1532 1529 1526 1523 1520 1516 1513 1510 1506 1503 1499 1496 1492 1489 1486 1483 1480 1477
1553 1552 1552 1552 1552 1552 1551 1551 1552 1553 1556 1556 1557 1556 1555 1554 1554 1553 1552 1549 1548 1545 1543 1541 1541 1537 1531 1526 1521 1519 1516 1512 1508 1504 1500 1496 1493 1490 1486 1482 1479 1476 1473
1553 1553 1553 1553 1553 1553 1552 1553 1554 1553 1554 1554 1556 1557 1556 1554 1553 1554 1553 1550 1546 1546 1544 1541 1538 1536 1534 1529 1522 1517 1514 1510 1506 1502 1498 1495 1491 1487 1483 1479 1476 1472 1468
1553 1555 1554 1554 1555 1555 1553 1553 1554 1555 1554 1553 1555 1557 1557 1558 1556 1554 1553 1551 1547 1546 1543 1542 1538 1535 1532 1529 1523 1517 1512 1507 1503 1498 1494 1491 1488 1484 1480 1476 1472 1468 1464
1555 1558 1557 1556 1556 1557 1555 1555 1554 1556 1557 1555 1555 1557 1558 1558 1557 1556 1555 1553 1550 1546 1543 1542 1539 1536 1532 1528 1523 1517 1510 1506 1501 1497 1492 1489 1484 1479 1475 1472 1468 1464 1460
1557 1560 1558 1557 1558 1558 1557 1558 1556 1556 1557 1558 1560 1561 1560 1560 1559 1559 1557 1554 1551 1548 1544 1541 1538 1535 1532 1528 1523 1517 1510 1504 1499 1494 1490 1484 1480 1475 1472 1467 1463 1459 1455
1559 1561 1560 1559 1559 1559 1561 1560 1559 1559 1558 1558 1562 1561 1562 1564 1562 1562 1557 1554 1551 1549 1545 1542 1538 1535 1532 1528 1522 1514 1507 1502 1496 1492 1486 1481 1476 1472 1468 1464 1459 1455 1450
1560 1560 1561 1563 1562 1562 1563 1562 1562 1561 1561 1562 1561 1562 1563 1563 1563 1561 1557 1553 1550 1547 1545 1543 1539 1535 1530 1525 1520 1511 1506 1500 1494 1489 1483 1478 1474 1470 1465 1461 1456 1451 1446
1562 1562 1561 1564 1566 1563 1565 1565 1563 1564 1563 1563 1562 1563 1563 1563 1562 1560 1557 1553 1550 1547 1545 1543 1539 1534 1529 1523 1516 1509 1504 1498 1492 1487 1481 1477 1472 1467 1462 1456 1451 1446 1441
1562 1561 1562 1566 1566 1566 1567 1566 1565 1566 1565 1563 1564 1563 1564 1563 1561 1558 1556 1553 1549 1546 1544 1542 1537 1532 1526 1521 1514 1507 1501 1495 1490 1484 1480 1476 1470 1464 1459 1453 1447 1442 1437
1561 1562 1563 1566 1566 1570 1569 1567 1567 1566 1565 1565 1565 1563 1564 1563 1560 1557 1555 1554 1553 1547 1542 1540 1536 1531 1525 1519 1513 1505 1499 1493 1487 1484 1480 1474 1468 1463 1457 1451 1445 1439 1434
1560 1563 1564 1565 1566 1569 1570 1569 1567 1566 1566 1566 1565 1563 1563 1561 1560 1557 1555 1554 1552 1549 1543 1539 1533 1528 1523 1517 1511 1504 1498 1492 1488 1484 1478 1473 1467 1461 1456 1450 1444 1438 1432
1560 1563 1565 1565 1567 1568 1569 1569 1568 1567 1566 1567 1565 1564 1562 1560 1558 1557 1555 1553 1550 1547 1541 1534 1530 1526 1520 1515 1509 1503 1498 1493 1488 1483 1478 1472 1466 1461 1454 1448 1442 1436 1430
1560 1563 1565 1566 1567 1567 1568 1569 1570 1567 1567 1567 1566 1564 1562 1560 1558 1556 1553 1551 1547 1543 1538 1532 1528 1523 1519 1513 1509 1502 1497 1492 1487 1483 1477 1472 1466 1459 1453 1446 1439 1434 1428
1560 1562 1564 1566 1566 1566 1569 1569 1569 1568 1568 1567 1565 1563 1561 1559 1557 1554 1550 1547 1543 1539 1537 1532 1526 1522 1517 1512 1506 1502 1495 1490 1486 1481 1477 1470 1464 1458 1452 1445 1439 1434 1426
1559 1561 1563 1564 1565 1566 1568 1568 1568 1568 1567 1566 1564 1562 1560 1558 1555 1551 1548 1544 1540 1536 1534 1529 1525 1520 1515 1511 1505 1499 1491 1487 1481 1478 1475 1468 1463 1457 1451 1445 1439 1432 1424
1558 1560 1561 1563 1564 1566 1567 1567 1567 1567 1566 1565 1563 1562 1560 1556 1553 1550 1546 1542 1538 1534 1530 1527 1523 1517 1513 1508 1503 1498 1492 1486 1481 1477 1471 1466 1462 1456 1451 1445 1439 1432 1423
1556 1558 1560 1561 1563 1565 1566 1566 1566 1566 1565 1564 1563 1561 1559 1554 1551 1547 1543 1540 1536 1532 1529 1525 1520 1517 1513 1508 1502 1497 1492 1486 1478 1477 1470 1466 1461 1455 1451 1446 1440 1432 1424
1553 1556 1558 1560 1561 1562 1564 1564 1564 1564 1564 1563 1561 1560 1558 1556 1550 1547 1543 1539 1537 1532 1528 1524 1521 1516 1510 1507 1501 1496 1493 1489 1483 1476 1471 1466 1460 1456 1452 1448 1442 1434 1426
1551 1553 1556 1558 1560 1560 1562 1562 1563 1562 1562 1561 1560 1558 1556 1553 1549 1546 1541 1538 1536 1534 1528 1522 1518 1513 1510 1505 1501 1497 1493 1488 1484 1479 1472 1465 1460 1457 1453 1450 1444 1437 1429
1549 1552 1554 1556 1557 1558 1559 1560 1560 1560 1560 1559 1557 1555 1553 1551 1547 1543 1539 1536 1533 1529 1525 1520 1516 1512 1508 1504 1501 1496 1492 1487 1482 1478 1473 1468 1463 1456 1453 1450 1445 1440 1433
1546 1549 1552 1553 1554 1556 1557 1558 1559 1559 1558 1558 1556 1554 1551 1549 1545 1541 1538 1534 1530 1526 1521 1517 1514 1510 1507 1504 1500 1496 1492 1487 1483 1477 1474 1468 1463 1459 1454 1453 1448 1443 1437